Location: Serrone
(41.8500°N, 13.0833°E)
Time: 08:03:09
(UTC+00:00)

Daily predictions for brighter satellites

Satellite Brightness Start Highest point End
(mag) Time Altitude Azimuth Time Altitude Azimuth Time Altitude Azimuth
USA 234 4.3 17:20:48 10° NE 17:26:59 45° NNW 17:33:09 10° W
DELTA 2 R/B (1) 4.1 17:21:57 10° SW 17:27:18 47° SSE 17:32:39 10° E
Cosmos 407 Rocket 4.4 17:24:52 10° N 17:29:16 28° ENE 17:33:36 10° ESE
Cosmos 2056 Rocket 4.4 17:26:21 10° SSE 17:30:54 28° E 17:35:26 10° NE
FengYun 1-2 T 4.5 17:30:16 10° SSE 17:35:55 82° WSW 17:41:37 10° NNW
Cosmos 1544 3.0 17:33:54 10° S 17:37:26 62° E 17:41:01 10° NNE
ASTEX 1 4.3 17:33:41 10° NNE 17:37:44 25° E 17:41:45 10° SE
Cosmos 2219 Rocket 2.2 17:33:17 10° NNW 17:38:54 88° ENE 17:44:30 10° SSE
SL-16 R/B 3.8 17:36:44 10° N 17:40:20 17° NE 17:43:56 10° E
Cosmos 1707 3.3 17:40:04 10° N 17:43:43 36° ENE 17:47:21 10° SE
Nadezhda 1 Rocket 3.9 17:38:38 10° S 17:44:38 71° E 17:50:43 10° NNE
ATLAS 2AS CENTAUR R/B 2.9 17:37:39 10° NW 17:45:20 87° WSW 17:52:19 10° SSE
NOAA 11 4.3 17:44:39 10° SSE 17:50:02 59° ENE 17:55:26 10° N
Cosmos 2327 Rocket 4.4 17:43:50 10° N 17:50:04 80° E 17:56:11 10° S
ISS -3.8 17:46:53 10° SW 17:50:12 88° SE 17:53:33 10° NE
Cosmos 2084 Rocket 3.8 17:46:36 10° SSW 17:50:50 47° ESE 17:55:08 10° NE
COSMO-SKYMED 1 4.0 17:47:05 10° N 17:51:12 43° WNW 17:55:18 10° SW
ERBS 4.5 17:50:25 10° N 17:52:27 15° NNE 17:54:30 10° ENE
GEOS 3 Rocket 4.4 17:48:57 11° ESE 17:53:19 33° NE 17:57:52 10° NNW
Okean 1-7 Rocket 4.5 17:50:15 10° NNE 17:54:09 29° ENE 17:58:04 10° SE
COSMOS 2428 3.3 17:53:31 10° NNW 17:59:07 62° WSW 18:04:42 10° S
ARGOS 4.4 17:57:46 14° ESE 18:00:47 21° ENE 18:04:44 10° NNE
USA 186 3.0 18:05:13 19° ESE 18:06:39 25° ENE 18:09:32 10° NNE
Meteor 1-4 Rocket 3.1 18:04:54 10° N 18:08:08 33° ENE 18:10:06 19° SE
Cosmos 2227 Rocket 2.3 18:02:57 10° S 18:08:24 51° ESE 18:13:53 10° NNE
Cosmos 1455 Rocket 3.8 18:05:13 10° SSE 18:09:08 32° E 18:13:07 10° NNE
CZ-2D R/B 3.5 18:07:37 10° S 18:11:24 71° WSW 18:15:13 10° NNW
CZ-4 R/B 3.7 18:08:59 10° SSW 18:12:16 26° W 18:15:38 10° NW
Orbus 7S? 4.3 18:08:45 10° SW 18:12:50 84° SE 18:22:44 10° NE
SJ-6B 3.7 18:10:49 19° ESE 18:12:58 30° ENE 18:16:33 10° N
SPOT 3 Rocket 4.2 18:09:17 14° SE 18:13:06 35° ENE 18:17:45 10° N
Cosmos 1371 Rocket 4.0 18:08:49 10° SSW 18:14:07 81° ESE 18:19:30 10° NNE
Cosmos 2219 3.3 18:08:25 10° SSW 18:14:10 84° WNW 18:19:57 10° NNE
PSLV R/B 2.8 18:13:38 10° WSW 18:16:17 57° S 18:17:02 38° ESE
Cosmos 2297 Rocket 2.1 18:12:57 10° SSW 18:18:33 67° ESE 18:24:10 10° NNE
Cosmos 1766 4.2 18:19:06 25° E 18:19:17 25° E 18:22:32 10° NE
Lacrosse 5 3.6 18:17:09 10° SSE 18:18:36 14° SE 18:18:36 14° SE
Cosmos 1452 Rocket 4.2 18:20:32 10° SSE 18:25:02 30° E 18:29:34 10° NE
Cosmos 676 Rocket 4.3 18:22:18 10° N 18:27:23 47° ENE 18:30:06 25° SE
Cosmos 1023 Rocket 4.4 18:26:45 10° NNW 18:31:53 66° ENE 18:35:10 22° SE
MOS 1 4.2 18:26:48 10° SSE 18:32:30 86° ENE 18:38:13 10° NNW
Lacrosse 5 rocket 1.5 18:30:27 10° WSW 18:34:02 60° NW 18:37:13 14° NE
Meteor 2-17 Rocket 4.3 18:28:13 10° N 18:34:17 70° E 18:40:17 10° SSE
Cosmos 405 Rocket 2.6 18:31:38 10° S 18:35:19 84° W 18:39:03 10° N
Cosmos 2181 Rocket 3.9 18:31:26 10° S 18:37:38 73° E 18:43:58 10° NNE
In-Cosmos 22 4.1 18:33:06 10° N 18:38:32 87° ENE 18:44:04 10° S
Cosmos 1939 Rocket 4.2 18:35:09 10° SSW 18:38:44 38° W 18:42:22 10° NNW
GENESIS II 4.2 18:35:27 10° NNW 18:39:33 77° NE 18:40:52 41° SE
Cosmos 2341 Rocket 4.0 18:35:01 10° N 18:41:16 85° W 18:47:29 10° S
H-2A R/B 2.2 18:40:25 33° ESE 18:42:10 47° ENE 18:47:01 10° N
Cosmos 1190 Rocket 4.1 18:38:05 10° NNW 18:43:23 76° WSW 18:47:51 14° S
Resurs 1-3 4.2 18:47:34 36° ENE 18:47:34 36° ENE 18:51:30 10° N
Cosmos 1437 Rocket 2.9 18:44:52 10° N 18:48:19 50° ENE 18:48:19 50° ENE
Cosmos 1674 3.2 18:45:23 10° N 18:48:20 41° NE 18:48:20 41° NE
Cosmos 614 Rocket 4.4 18:44:23 10° NNW 18:49:31 61° WSW 18:54:08 12° S
Cosmos 2237 Rocket 2.7 18:46:29 10° NNW 18:52:06 60° WSW 18:57:00 14° S
Cosmos 2366 rocket 4.0 18:47:43 10° N 18:54:05 68° E 18:58:01 24° SSE
Cosmos 864 Rocket 4.4 18:47:53 10° N 18:54:05 65° E 18:57:37 27° SSE
ADEOS Rocket 3.5 18:47:06 10° NNE 18:54:33 62° E 19:02:15 10° S
Cosmos 2218 Rocket 3.9 18:48:33 10° N 18:54:56 74° E 18:59:15 21° SSE
FREGAT/IRIS 4.4 18:57:42 23° SW 18:58:37 29° W 19:01:09 10° NNW
Meteor 1-24 Rocket 3.8 18:55:19 10° N 19:01:09 65° ENE 19:03:15 40° SE
Resurs 01 Rocket 2.5 19:02:49 36° NE 19:02:49 36° NE 19:06:08 10° N
SL-8 Rocket 4.0 18:56:09 10° N 19:02:22 82° W 19:07:52 13° S
Cosmos 389 Rocket 4.5 18:59:34 10° NNW 19:02:32 27° W 19:05:26 10° SSW
CZ-2C R/B 4.4 19:01:46 10° N 19:06:06 52° WNW 19:10:23 10° SSW
Cosmos 1805 3.2 19:06:57 83° NW 19:06:57 83° NW 19:10:45 10° N
Cosmos 482 Debris 4.2 19:02:24 10° WSW 19:07:21 71° NW 19:07:22 71° NNW
DELTA 2 R/B (1) 3.5 19:07:53 10° W 19:13:29 71° S 19:14:12 63° SE
Cosmos 1959 Rocket 4.5 19:08:24 10° N 19:14:33 81° W 19:18:25 25° S
Cosmos 1420 Rocket 4.1 19:10:17 10° SSW 19:15:35 79° WNW 19:20:57 10° NNE
SL-16 R/B 2.1 19:19:30 10° NNW 19:25:12 85° WSW 19:26:04 66° S
SL-08 RB Rocket 3.8 19:26:58 73° N 19:26:58 73° N 19:31:12 10° NNW
ISS -1.4 19:24:39 10° WNW 19:26:55 21° NNW 19:26:55 21° NNW
ERBS 4.4 19:25:53 10° NW 19:27:32 27° NW 19:27:32 27° NW
RESURS DK-1 3.9 19:25:32 10° NNW 19:27:47 29° N 19:27:47 29° N
SL-8 R/B 4.4 19:25:41 10° WNW 19:30:06 45° N 19:30:06 45° N
GEOS 3 Rocket 4.3 19:30:05 40° SSW 19:31:12 46° WSW 19:36:08 10° NW
Cosmos 1741 Rocket 4.2 19:26:33 10° NNW 19:31:10 59° NNE 19:31:10 59° NNE
Spot 2 Rocket 4.4 19:34:39 36° NNE 19:34:39 36° NNE 19:37:54 10° N
ARGOS 3.7 19:39:17 43° SSW 19:40:37 54° W 19:45:55 10° NNW
Cosmos 2227 Rocket 4.3 19:48:06 10° WSW 19:52:44 25° NW 19:57:24 10° N
CZ-2C R/B 3.5 19:55:54 61° W 19:55:54 61° W 20:01:04 10° NNW
Lacrosse 5 4.3 19:57:34 10° SW 19:57:56 12° SW 19:57:56 12° SW
Lacrosse 5 rocket 4.3 20:11:53 10° NW 20:12:54 13° NW 20:12:54 13° NW
H-2A R/B 4.1 20:21:02 19° WSW 20:21:51 20° W 20:25:28 10° NW
Resurs 01 Rocket 4.4 20:40:24 16° WNW 20:40:24 16° WNW 20:41:49 10° NW
CZ-4C R/B 4.3 21:05:33 10° NNW 21:09:50 28° NNE 21:09:50 28° NNE
